Regional Weather Roundup
Issued by NWS

Home | Current Version | Previous Version | Graphics & Text | Print | Product List | Glossary On
Versions: 1 2 3 4 5 6 7 8 9 10 11 12 13 14 15 16 17 18 19 20 21 22 23 24 25 26 27 28 29 30 31 32 33 34 35 36 37 38 39 40 41 42 43 44 45 46 47 48 49 50
000
ASUS44 KMEG 220210
RWRTN
TENNESSEE HOURLY STATE WEATHER ROUNDUP
NATIONAL WEATHER SERVICE MEMPHIS TN
800 PM CST SAT JAN 21 2017

TNZ002-004-019-021-049-052-054-088>092-220300-
WEST TENNESSEE

CITY           SKY/WX    TMP DP  RH WIND       PRES   REMARKS
MEMPHIS INTL   CLOUDY    64  53  67 SE5       29.55R
NWS MEMPHIS      N/A     62 N/A N/A MISG        N/A
JACKSON        PTCLDY    61  52  72 S3        29.59R
DYERSBURG      CLOUDY    63  48  59 SE6       29.56S
UNION CITY     CLEAR     61  48  63 CALM      29.56S
PARIS          CLEAR     57  50  77 CALM      29.59F
HUNTINGDON     MOCLDY    61  52  72 SE3       29.58S
$$

TNZ008-025-027-028-033-062-065-066-220300-
NORTH MIDDLE TENNESSEE

CITY           SKY/WX    TMP DP  RH WIND       PRES   REMARKS
NASHVILLE      CLOUDY    59  49  69 CALM      29.65R
PORTLAND       PTCLDY    59  50  72 S6        29.64R
CLARKSVILLE    CLOUDY    60  48  64 SE3       29.62R
SMYRNA         MOCLDY    56  51  84 CALM      29.65S
GALLATIN       CLEAR     55  50  82 CALM      29.67S
CROSSVILLE     PTCLDY    49  46  90 CALM      29.68R
$$

TNZ061-075-076-078-094-096-097-220300-
SOUTH MIDDLE TENNESSEE

CITY           SKY/WX    TMP DP  RH WIND       PRES   REMARKS
TULLAHOMA      CLEAR     54  48  82 CALM      29.65S
WINCHESTER     CLEAR     55  52  88 CALM      29.64S
MCMINNVILLE    CLEAR     52  52 100 CALM      29.65R
COLUMBIA       CLEAR     57  57 100 SE3       29.61F
SHELBYVILLE    CLEAR     55  52  88 CALM      29.65S
$$

TNZ017-018-042-046-047-220300-
NORTHEAST TENNESSEE

CITY           SKY/WX    TMP DP  RH WIND       PRES   REMARKS
TRI CITIES     CLOUDY    52  51  97 CALM      29.67F
ELIZABETHTON   CLOUDY    54  50  87 CALM      29.67S
$$

TNZ012-013-036-069-073-074-220300-
CENTRAL EAST TENNESSEE

CITY           SKY/WX    TMP DP  RH WIND       PRES   REMARKS
KNOXVILLE      CLOUDY    53  50  89 CALM      29.66S
OAK RIDGE      PTCLDY    52  49  89 CALM      29.68S
GATLINBURG     PTCLDY    50  48  93 CALM      29.66S
MORRISTOWN     CLOUDY    54  52  94 CALM      29.66S
JACKSBORO      CLEAR     46  46 100 CALM      29.70S FOG
$$

TNZ083-085-099-220300-
SOUTHEAST TENNESSEE

CITY           SKY/WX    TMP DP  RH WIND       PRES   REMARKS
CHATTANOOGA    CLOUDY    58  53  84 CALM      29.65F
$$

SKY/WX REPORTED AS FAIR MEANS FEW OR NO CLOUDS BELOW
12 THOUSAND FEET.





USA.gov is the U.S. government's official web portal to all federal, state and local government web resources and services.